"Time","Temp","Dewpoint","Humidity","Pressure","Direction","Speed","Gust","Precip","PrecipRate"
"00:04:59","70.4","66.8","88.6","30.18","144","0","0","0.00","0.00"
"00:09:59","70.2","66.8","89","30.18","144","0","0","0.00","0.00"
"00:14:59","70","66.6","89","30.18","144","0","0","0.00","0.00"
"00:19:58","69.8","66.6","89.7","30.18","144","0","0","0.00","0.00"
"00:24:57","69.6","66.5","90","30.18","144","0","0","0.00","0.00"
"00:29:56","69.5","66.4","90","30.18","144","0","0","0.00","0.00"
"00:34:59","69.4","66.7","91","30.18","144","0","0","0.00","0.00"
"00:39:59","69.3","66.6","91","30.18","144","0","0","0.00","0.00"
"00:44:58","69.1","66.4","91","30.18","144","0","0","0.00","0.00"
"00:49:57","68.9","66.2","91","30.18","144","0","0","0.00","0.00"
"00:54:56","68.8","66.2","91.4","30.18","144","0","0","0.00","0.00"
"00:59:59","68.7","66.3","92","30.18","144","0","0","0.00","0.00"
"01:04:57","68.6","66.2","92","30.18","144","0","0","0.00","0.00"
"01:09:56","68.5","66.1","92","30.18","144","0","0","0.00","0.00"
"01:14:56","68.5","66.4","92.8","30.18","144","0","0","0.00","0.00"
"01:19:56","68.6","66.5","93","30.18","144","0","0","0.00","0.00"
"01:24:59","68.6","66.5","93","30.18","144","0","0","0.00","0.00"
"01:29:58","68.6","66.5","93","30.18","144","0","0","0.00","0.00"
"01:34:56","68.6","66.5","93","30.18","144","0","0","0.00","0.00"
"01:39:57","68.6","66.4","92.7","30.18","144","0","0","0.00","0.00"
"01:44:56","68.4","66.1","92.5","30.18","144","0","0","0.00","0.00"
"01:49:59","68.3","66.2","93","30.18","144","0","0","0.00","0.00"
"01:54:58","68.2","66.1","93","30.18","144","0","0","0.00","0.00"
"01:59:57","68.2","66.1","93","30.18","144","0","0","0.00","0.00"
"02:04:59","68.1","66.3","93.9","30.18","144","0","0","0.00","0.00"
"02:09:58","68.1","66.1","93.3","30.18","144","0","0","0.00","0.00"
"02:14:58","68","66.2","94","30.18","144","0","0","0.00","0.00"
"02:19:57","68","66.2","94","30.18","144","0","0","0.00","0.00"
"02:24:56","67.9","66.1","94","30.18","144","0","0","0.00","0.00"
"02:29:59","67.9","66.1","94","30.18","144","0","0","0.00","0.00"
"02:34:58","67.9","66.1","94","30.18","144","0","0","0.00","0.00"
"02:39:58","67.7","65.9","94","30.18","144","0","0","0.00","0.00"
"02:44:57","67.7","65.9","94","30.19","144","0","0","0.00","0.00"
"02:49:56","67.5","65.7","94","30.19","144","0","0","0.00","0.00"
"02:54:59","67.4","65.6","94","30.19","144","0","0","0.00","0.00"
"02:59:58","67.3","65.5","94","30.19","144","0","0","0.00","0.00"
"03:04:57","67.2","65.5","94.4","30.18","144","0","0","0.00","0.00"
"03:09:56","67.2","65.7","95","30.18","144","0","0","0.00","0.00"
"03:14:56","67.2","65.7","95","30.18","144","0","0","0.00","0.00"
"03:19:56","67.1","65.6","95","30.18","144","0","0","0.00","0.00"
"03:24:59","67.2","65.7","95","30.18","144","0","0","0.00","0.00"
"03:29:58","67.1","65.6","95","30.18","144","0","0","0.00","0.00"
"03:34:56","67.1","65.6","95","30.18","144","0","0","0.00","0.00"
"03:39:57","67","65.5","95","30.18","144","0","0","0.00","0.00"
"03:44:56","66.8","65.3","95","30.18","144","0","0","0.00","0.00"
"03:49:58","66.7","65.2","95","30.18","144","0","0","0.00","0.00"
"03:54:57","66.6","65.1","95","30.18","144","0","0","0.00","0.00"
"03:59:56","66.5","65","95","30.18","144","0","0","0.00","0.00"
"04:04:59","66.4","64.9","95","30.18","144","0","0","0.00","0.00"
"04:09:58","66.3","64.8","95","30.18","144","0","0","0.00","0.00"
"04:14:58","66.1","64.6","95","30.18","144","0","0","0.00","0.00"
"04:19:57","66.1","64.6","95","30.17","144","0","0","0.00","0.00"
"04:24:56","66","64.5","95","30.17","144","0","0","0.00","0.00"
"04:29:59","66","64.5","95","30.17","144","0","0","0.00","0.00"
"04:34:58","65.9","64.4","95","30.17","144","0","0","0.00","0.00"
"04:39:58","65.8","64.3","95.1","30.17","144","0","0","0.00","0.00"
"04:44:57","65.8","64.6","96","30.17","144","0","0","0.00","0.00"
"04:49:56","65.7","64.5","96","30.17","144","0","0","0.00","0.00"
"04:54:59","65.5","64.2","95.4","30.17","144","0","0","0.00","0.00"
"04:59:58","65.4","63.9","95","30.17","144","0","0","0.00","0.00"
"05:04:56","65.2","63.9","95.7","30.17","144","0","0","0.00","0.00"
"05:09:59","65.2","64","96","30.17","144","0","0","0.00","0.00"
"05:14:59","65.3","64.1","96","30.18","144","0","0","0.00","0.00"
"05:19:58","65.4","64.2","96","30.18","144","0","0","0.00","0.00"
"05:24:57","65.4","64.2","96","30.18","144","0","0","0.00","0.00"
"05:29:56","65.4","64.2","96","30.18","144","0","0","0.00","0.00"
"05:34:59","65.3","64.1","96","30.17","144","0","0","0.00","0.00"
"05:39:59","65.2","64","96","30.17","144","0","0","0.00","0.00"
"05:44:58","65.1","63.9","96","30.18","144","0","0","0.00","0.00"
"05:49:58","65","63.8","96","30.18","144","0","0","0.00","0.00"
"05:54:57","64.9","63.7","96","30.18","144","0","0","0.00","0.00"
"05:59:56","64.8","63.6","96","30.18","144","0","0","0.00","0.00"
"06:04:58","64.7","63.5","96","30.17","144","0","0","0.00","0.00"
"06:09:58","64.6","63.4","96","30.17","144","0","0","0.00","0.00"
"06:14:58","64.6","63.4","96","30.18","144","0","0","0.00","0.00"
"06:19:58","64.5","63.6","96.8","30.18","144","0","0","0.00","0.00"
"06:24:57","64.6","63.7","97","30.18","144","0","0","0.00","0.00"
"06:29:56","64.6","63.7","97","30.18","144","0","0","0.00","0.00"
"06:34:59","64.7","63.8","97","30.18","144","0","0","0.00","0.00"
"06:39:56","64.8","63.9","97","30.18","144","0","0","0.00","0.00"
"06:44:58","65","64.1","97","30.18","144","0","0","0.00","0.00"
"06:49:56","65.1","64.2","97","30.18","144","0.1","2","0.00","0.00"
"06:54:59","65.3","64.4","97","30.18","144","0.4","2.3","0.00","0.00"
"06:59:57","65.4","64.5","97","30.18","144","0","0","0.00","0.00"
"07:04:59","65.5","64.6","97","30.17","144","0","0","0.00","0.00"
"07:09:58","65.7","64.8","97","30.17","144","0.1","1.2","0.00","0.00"
"07:14:59","65.9","65","97","30.17","144","0","1.2","0.00","0.00"
"07:19:57","66.1","65.2","97","30.17","144","1.1","4","0.00","0.00"
"07:24:56","66.3","65.4","97","30.17","144","0.7","3.5","0.00","0.00"
"07:29:58","66.5","65.6","97","30.18","144","0.1","1.2","0.00","0.00"
"07:34:57","66.7","65.8","97","30.18","144","0.2","2.3","0.00","0.00"
"07:39:57","66.9","66","97","30.18","144","0.3","2.3","0.00","0.00"
"07:44:56","67.1","66.2","97","30.18","144","0.3","1.2","0.00","0.00"
"07:49:59","67.2","66.3","97","30.18","144","0.1","3","0.00","0.00"
"07:54:58","67.4","66.4","96.8","30.18","143","1.3","3.5","0.00","0.00"
"07:59:57","67.6","66.4","96","30.18","116","1.3","4","0.00","0.00"
"08:04:58","67.6","66.2","95.2","30.18","38","1.9","4","0.00","0.00"
"08:09:57","67.7","66.2","95","30.18","36","0.7","3.5","0.00","0.00"
"08:14:57","68","66.3","94.6","30.18","36","1.4","3.5","0.00","0.00"
"08:19:56","68.2","66.4","94.2","30.18","36","0.6","2.3","0.00","0.00"
"08:24:59","68.5","66.8","94.2","30.18","36","0.7","3.5","0.00","0.00"
"08:29:57","68.9","66.9","93.3","30.19","35","1","3.5","0.00","0.00"
"08:34:56","69.4","67.1","92.2","30.19","31","1","4","0.00","0.00"
"08:39:55","70.1","67.3","91","30.19","30","0.8","3.5","0.00","0.00"
"08:44:58","70.7","67.2","88.7","30.19","11","1.5","4","0.00","0.00"
"08:49:56","71.1","67.4","87.8","30.19","5","1.6","3.5","0.00","0.00"
"08:54:59","71.6","67.7","87.3","30.19","5","0.9","4","0.00","0.00"
"08:59:58","72.1","67.8","86.1","30.19","6","1.1","3.5","0.00","0.00"
"09:04:56","72.5","68","85.7","30.19","356","0.9","3.5","0.00","0.00"
"09:09:59","72.9","68.2","85.3","30.19","346","0.4","2.3","0.00","0.00"
"09:14:59","73.3","68.4","84.7","30.19","318","1.3","3.5","0.00","0.00"
"09:19:57","73.6","68.3","83.7","30.19","275","1.7","5","0.00","0.00"
"09:24:56","73.8","68.4","83.2","30.19","290","1.4","4","0.00","0.00"
"09:29:56","74.2","68.3","82","30.19","309","1.7","3.5","0.00","0.00"
"09:34:58","74.6","68.7","82","30.19","310","1.1","4","0.00","0.00"
"09:39:57","75","69.1","82","30.19","310","0.7","2.3","0.00","0.00"
"09:44:56","75.4","69.4","81.6","30.19","310","0.5","2.3","0.00","0.00"
"09:49:58","75.8","69.7","81.4","30.19","310","0.2","2.3","0.00","0.00"
"09:54:56","76.2","70.1","81.5","30.19","310","0.7","3.5","0.00","0.00"
"09:59:59","76.7","70.2","80.6","30.19","310","1.3","3.5","0.00","0.00"
"10:04:56","77.1","70.7","80.7","30.19","310","0.6","3.5","0.00","0.00"
"10:09:59","77.5","70.3","78.7","30.19","310","0.9","3.5","0.00","0.00"
"10:14:58","77.7","69.5","76","30.19","310","1.8","3.5","0.00","0.00"
"10:19:57","77.7","70","77.2","30.19","310","0.5","3.5","0.00","0.00"
"10:24:56","77.8","69.9","76.7","30.19","310","0","0","0.00","0.00"
"10:29:58","77.9","69.5","75.6","30.19","310","0","1.2","0.00","0.00"
"10:34:57","78.1","69.4","74.6","30.18","311","0","0","0.00","0.00"
"10:39:57","78.6","70.2","75.5","30.18","311","0.3","3","0.00","0.00"
"10:44:56","79","70.1","74.3","30.18","311","0.3","3.5","0.00","0.00"
"10:49:56","79.2","69.3","71.6","30.18","311","0.5","2.3","0.00","0.00"
"10:54:56","79.7","70.5","73.4","30.18","260","1.2","4","0.00","0.00"
"10:59:59","80.2","70.2","71.5","30.18","222","1.8","4","0.00","0.00"
"11:04:59","80.5","70.6","71.9","30.18","219","0.5","3","0.00","0.00"
"11:09:59","80.8","70.4","70.8","30.18","218","1.6","4","0.00","0.00"
"11:14:57","80.7","70.1","70.1","30.18","217","0.2","2.3","0.00","0.00"
"11:19:56","80.8","70.4","70.7","30.18","217","0.1","2.3","0.00","0.00"
"11:24:57","81","70.2","69.8","30.18","217","0.4","2.3","0.00","0.00"
"11:29:56","81","70.7","71","30.18","217","0.4","2.3","0.00","0.00"
"11:34:56","81","70.6","70.7","30.18","217","0.8","3.5","0.00","0.00"
"11:39:57","81.1","71","71.6","30.18","217","0.5","2.3","0.00","0.00"
"11:44:57","81.1","71.1","71.8","30.18","217","1.2","3.5","0.00","0.00"
"11:49:56","81","70.6","70.7","30.18","217","0.4","3.5","0.00","0.00"
"11:54:56","81","71.3","72.5","30.18","217","0.9","3.5","0.00","0.00"
"11:59:56","81.1","71.3","72.1","30.18","217","0.2","2.3","0.00","0.00"
"12:04:59","81.1","71.6","72.9","30.17","217","0","0","0.00","0.00"
"12:09:56","81.1","71.3","72.1","30.17","173","0.5","4","0.00","0.00"
"12:14:57","81.2","71.5","72.5","30.17","182","0.3","4","0.00","0.00"
"12:19:57","81.3","71.6","72.7","30.17","183","0.3","3.5","0.00","0.00"
"12:24:56","81.6","72.2","73.3","30.17","191","0.6","5","0.00","0.00"
"12:29:56","81.8","72.1","72.5","30.17","193","1.7","6","0.00","0.00"
"12:34:59","81.9","72","72","30.17","190","3","6","0.00","0.00"
"12:39:56","82","72.1","72","30.17","190","3.6","10.4","0.00","0.00"
"12:44:59","82","72.3","72.5","30.17","166","3.1","7","0.00","0.00"
"12:49:59","81.9","71.7","71.3","30.17","160","2.4","6","0.00","0.00"
"12:54:59","81.7","71.9","72.2","30.17","166","0.2","3","0.00","0.00"
"12:59:58","81.5","72.1","73.3","30.17","170","2.3","6","0.00","0.00"
"13:04:57","81","72","74.2","30.17","185","3.2","10","0.00","0.00"
"13:09:58","80.4","71.8","75.2","30.17","187","4.7","10.4","0.00","0.00"
"13:14:59","79.6","69.4","71.2","30.17","165","3.6","10.4","0.00","0.00"
"13:19:59","79","68.2","69.4","30.17","131","1.8","5","0.00","0.00"
"13:24:59","78.8","69","72.2","30.17","130","1.2","4","0.00","0.00"
"13:29:57","78.6","70.2","75.3","30.17","130","0.6","2.3","0.00","0.00"
"13:34:59","78.4","69.6","74.5","30.16","130","1.4","4","0.00","0.00"
"13:39:59","78.4","69.5","74.3","30.16","130","0.7","3.5","0.00","0.00"
"13:44:57","78.2","69.8","75.5","30.16","130","1","3","0.00","0.00"
"13:49:56","78.2","70.1","76.4","30.16","130","0.8","3.5","0.00","0.00"
"13:54:58","78.1","70.5","77.3","30.16","130","0.6","2.3","0.00","0.00"
"13:59:57","78.1","69.7","75.5","30.16","130","0.5","2.3","0.00","0.00"
"14:04:58","78.1","69.6","75.2","30.15","130","0.7","3.5","0.00","0.00"
"14:09:57","78.1","69.5","74.8","30.15","131","1.1","3.5","0.00","0.00"
"14:14:57","78.2","68.8","73","30.15","132","0.8","3.5","0.00","0.00"
"14:19:59","78.4","69.3","73.7","30.15","136","1.5","4","0.00","0.00"
"14:24:58","78.5","68.6","71.8","30.15","158","2.4","5","0.00","0.00"
"14:29:56","78.5","68.7","72","30.15","178","2.5","5","0.00","0.00"
"14:34:58","78.4","69","73","30.15","175","1.1","5","0.00","0.00"
"14:39:58","78.1","69.2","74.2","30.15","168","1.9","4.6","0.00","0.00"
"14:44:56","77.9","69.5","75.4","30.15","159","1.3","3.5","0.00","0.00"
"14:49:59","77.8","69.6","75.9","30.15","159","1.4","3.5","0.00","0.00"
"14:54:57","77.8","70.5","78.1","30.15","159","0.9","2.3","0.00","0.00"
"14:59:59","77.9","70.7","78.4","30.15","159","1.4","4","0.00","0.00"
"15:04:57","77.9","69.8","76.4","30.15","172","2.7","7","0.00","0.00"
"15:09:56","77.7","69.4","75.8","30.15","172","2.8","6","0.00","0.00"
"15:14:56","77.5","69.3","76.2","30.15","174","3.1","7","0.00","0.00"
"15:19:57","77.3","69.3","76.5","30.15","185","3.8","9","0.00","0.00"
"15:24:56","77.1","69.2","76.7","30.15","181","2.9","9.2","0.00","0.00"
"15:29:58","77.1","68.5","74.9","30.15","164","2.1","4.6","0.00","0.00"
"15:34:56","77","67.6","72.8","30.14","156","2.5","5","0.00","0.00"
"15:39:56","77","67.7","73","30.14","183","2.3","4.6","0.00","0.00"
"15:44:58","77","67.6","72.6","30.14","183","2.3","6","0.00","0.00"
"15:49:57","76.9","67.7","73.2","30.14","158","2.5","5.8","0.00","0.00"
"15:54:59","76.8","68.3","75.1","30.14","150","2.6","7","0.00","0.00"
"15:59:57","76.5","68.2","75.5","30.14","128","1.6","4.6","0.00","0.00"
"16:04:59","76.1","67.9","75.7","30.14","129","1.6","4","0.00","0.00"
"16:09:58","75.9","68","76.6","30.14","129","0.1","2.3","0.00","0.00"
"16:14:58","75.7","68.2","77.6","30.14","129","0.1","2","0.00","0.00"
"16:19:56","75.7","67.9","76.8","30.14","129","0","0","0.00","0.00"
"16:24:59","75.7","68.2","77.6","30.14","129","0","0","0.00","0.00"
"16:29:57","75.8","69.9","81.9","30.14","129","0","0","0.00","0.00"
"16:34:56","75.8","69.6","81.1","30.13","129","0","0","0.00","0.00"
"16:39:59","75.7","68.9","79.6","30.13","129","0","1.2","0.00","0.00"
"16:44:58","75.5","68.7","79.3","30.13","129","0","0","0.00","0.00"
"16:49:56","75.4","69.1","80.6","30.13","129","1.4","3.5","0.00","0.00"
"16:54:59","75.3","68.9","80.5","30.13","129","1.2","3.5","0.00","0.00"
"16:59:58","75.1","69.1","81.7","30.14","130","0.9","3.5","0.00","0.00"
"17:04:56","74.8","69.4","83.1","30.14","132","0.7","3.5","0.02","0.01"
"17:09:59","74.5","69.4","84.1","30.14","132","0.4","3.5","0.03","0.03"
"17:14:58","74.2","69.6","85.7","30.14","132","0.5","2.3","0.05","0.05"
"17:19:56","73.8","69.7","87","30.14","134","0.8","4","0.06","0.06"
"17:24:59","73.3","69.5","88","30.14","135","0.6","3","0.07","0.07"
"17:29:57","72.9","69.5","89","30.15","186","3","7","0.08","0.08"
"17:34:59","72.2","68.5","88.3","30.15","193","2","6","0.09","0.08"
"17:39:59","71.5","67.9","88.2","30.15","158","1.5","5","0.11","0.10"
"17:44:58","70.9","67.4","88.6","30.15","114","1.9","4","0.13","0.12"
"17:49:56","70.5","67.4","89.9","30.13","115","0.1","2.3","0.14","0.14"
"17:54:59","70.2","67.4","90.8","30.13","115","0","0","0.14","0.14"
"17:59:58","70.1","67.7","92","30.13","115","0.2","2.3","0.14","0.14"
"18:04:56","70","67.8","92.7","30.12","115","0.5","2.3","0.14","0.14"
"18:09:59","69.9","67.8","93","30.12","115","0.1","3","0.14","0.12"
"18:14:59","70","67.9","93","30.12","115","0.7","3.5","0.14","0.11"
"18:19:57","70","68.2","94","30.11","115","0.5","2","0.14","0.09"
"18:24:56","70","68.2","94","30.11","115","0.1","2.3","0.14","0.08"
"18:29:59","70","68.2","94","30.11","115","0","0","0.14","0.07"
"18:34:57","69.9","68.1","94","30.11","115","0","1","0.14","0.06"
"18:39:57","70.1","68.6","95","30.11","115","0.1","1.2","0.14","0.05"
"18:44:59","70.1","68.6","95","30.11","115","0","0","0.14","0.03"
"18:49:58","70.1","68.6","95","30.10","115","0","0","0.14","0.01"
"18:54:57","70.1","68.6","95","30.10","115","0","0","0.14","0.00"
"18:59:59","70.1","68.6","95","30.10","115","0","0","0.14","0.00"
"19:04:57","70.1","68.6","95","30.10","115","0","0","0.14","0.00"
"19:09:56","70.2","68.8","95.3","30.10","115","0","0","0.14","0.00"
"19:14:57","70.2","68.8","95.2","30.10","115","0","0","0.14","0.00"
"19:19:59","70.2","68.9","95.5","30.09","115","0","0","0.15","0.00"
"19:24:58","70.3","69.1","96","30.09","115","0","0","0.15","0.01"
"19:29:56","70.2","69","96","30.09","115","0","0","0.15","0.01"
"19:34:59","70.2","69","96","30.09","115","0","0","0.15","0.01"
"19:39:59","70.2","69","96","30.09","355","0","0","0.15","0.01"
"19:44:57","70.2","69","96","30.09","355","0.1","1.2","0.15","0.01"
"19:49:59","70.2","69","96","30.09","355","0","0","0.15","0.01"
"19:54:58","70.1","68.9","96","30.09","355","0","0","0.15","0.01"
"19:59:57","70.1","68.9","96","30.09","355","0","0","0.15","0.01"
"20:04:59","70","68.8","96","30.09","355","0.2","2.3","0.15","0.01"
"20:09:58","70","68.8","96","30.09","355","0.1","1.2","0.16","0.01"
"20:14:58","70","68.8","96","30.09","355","0.3","2.3","0.16","0.02"
"20:19:57","69.9","68.7","96","30.08","355","0","2.3","0.16","0.02"
"20:24:56","69.8","68.6","96","30.08","355","0.3","1.2","0.16","0.01"
"20:29:59","69.8","68.6","96","30.08","355","0","1.2","0.16","0.01"
"20:34:58","69.7","68.5","96","30.08","355","0.1","1.2","0.16","0.01"
"20:39:58","69.6","68.4","96","30.08","355","0","0","0.16","0.01"
"20:44:57","69.5","68.3","96","30.08","355","0","0","0.16","0.01"
"20:49:56","69.5","68.3","96","30.08","355","0","0","0.16","0.01"
"20:54:59","69.5","68.3","96","30.08","355","0.1","1.2","0.16","0.01"
"20:59:58","69.5","68.3","96","30.08","355","0","1.2","0.16","0.01"
"21:04:56","69.4","68.2","96","30.08","355","0","0","0.16","0.01"
"21:09:59","69.3","68.1","96","30.08","355","0","0","0.16","0.01"
"21:14:56","69.3","68.1","96","30.08","355","0","0","0.16","0.00"
"21:19:59","69.3","68.2","96.4","30.08","355","0","0","0.16","0.00"
"21:24:58","69.3","68.4","97","30.08","355","0","0","0.16","0.00"
"21:29:57","69.3","68.3","96.6","30.08","355","0","0","0.16","0.00"
"21:34:56","69.2","68.3","97","30.08","355","0","0","0.16","0.00"
"21:39:56","69.3","68.4","97","30.08","355","0","0","0.16","0.00"
"21:44:59","69.3","68.4","97","30.08","355","0","0","0.16","0.00"
"21:49:58","69.3","68.4","97","30.08","355","0","0","0.16","0.00"
"21:54:57","69.3","68.4","97","30.08","355","0","0","0.16","0.00"
"21:59:56","69.3","68.4","97","30.08","355","0","0","0.16","0.00"
"22:04:58","69.4","68.5","97","30.07","355","0","0","0.16","0.00"
"22:09:57","69.4","68.5","97","30.07","355","0","0","0.16","0.00"
"22:14:57","69.4","68.5","97","30.07","355","0","0","0.16","0.00"
"22:19:56","69.5","68.6","97","30.07","355","0","0","0.16","0.00"
"22:24:59","69.5","68.6","97","30.07","355","0","0","0.16","0.00"
"22:29:58","69.5","68.6","97","30.07","355","0","0","0.16","0.00"
"22:34:57","69.5","68.6","97","30.07","355","0","0","0.16","0.00"
"22:39:57","69.5","68.6","97","30.07","355","0","0","0.16","0.00"
"22:44:56","69.5","68.6","97","30.07","355","0","0","0.16","0.00"
"22:49:58","69.5","68.6","97","30.06","355","0","0","0.16","0.00"
"22:54:58","69.5","68.6","97","30.06","355","0","0","0.16","0.00"
"22:59:57","69.5","68.6","97","30.06","355","0","0","0.16","0.00"
"23:04:59","69.5","68.6","97","30.05","355","0","0","0.16","0.00"
"23:09:58","69.5","68.6","97","30.05","355","0","0","0.16","0.00"
"23:14:59","69.5","68.6","97","30.05","355","0","0","0.16","0.00"
"23:19:58","69.6","68.7","97","30.05","355","0","0","0.16","0.00"
"23:24:57","69.6","68.7","97","30.05","355","0","0","0.16","0.00"
"23:29:56","69.6","68.7","97","30.05","355","0","0","0.16","0.00"
"23:34:59","69.6","68.7","97","30.04","355","0","0","0.16","0.00"
"23:39:59","69.6","68.7","97","30.04","355","0","0","0.16","0.00"
"23:44:58","69.6","68.7","97","30.04","355","0","0","0.16","0.00"
"23:49:57","69.6","68.7","97","30.04","355","0","0","0.16","0.00"
"23:54:56","69.6","68.7","97","30.04","355","0","0","0.16","0.00"
"23:59:59","69.6","68.7","97","30.04","355","0","0","0.16","0.00"
